GW6202 Weather Reports


Display with metric or nautical units.
time (UTC)temp
F
wind
direction
speed
MPH
gust
MPH
rain 1hr
in
rain 24hr
in
rain mn
in
humidity
%
barometer
mb
20260505050500 60 184 2.0 2.0 0.00 0.00 0.00 54 1007.8
20260505041428 60 139 3.0 5.0 0.00 0.00 0.00 52 1007.8
20260505040925 61 200 4.0 5.0 0.00 0.00 0.00 51 1007.6
20260505040422 61 187 4.0 5.0 0.00 0.00 0.00 51 1007.6
20260505035919 61 153 6.0 8.0 0.00 0.00 0.00 50 1007.6
20260505035415 61 187 7.0 9.0 0.00 0.00 0.00 50 1007.6
20260505034912 61 250 5.0 6.0 0.00 0.00 0.00 50 1007.4
20260505034409 62 163 3.0 3.0 0.00 0.00 0.00 50 1007.4
20260505033906 62 308 4.0 5.0 0.00 0.00 0.00 50 1007.5
20260505033402 62 185 7.0 11.0 0.00 0.00 0.00 50 1007.5
20260505032901 62 299 6.0 8.0 0.00 0.00 0.00 49 1007.3
20260505032357 62 152 7.0 8.0 0.00 0.00 0.00 49 1007.4
20260505031854 62 246 3.0 3.0 0.00 0.00 0.00 48 1007.1
20260505031351 62 260 6.0 9.0 0.00 0.00 0.00 48 1007.3
20260505030848 62 107 5.0 7.0 0.00 0.00 0.00 48 1007.3
20260505030344 62 205 6.0 9.0 0.00 0.00 0.00 48 1007.4
20260505025839 62 201 4.0 5.0 0.00 0.00 0.00 48 1007.2
20260505025337 63 198 4.0 7.0 0.00 0.00 0.00 47 1007.4
20260505024835 63 276 2.0 2.0 0.00 0.00 0.00 47 1007.2
20260505024333 63 244 4.0 6.0 0.00 0.00 0.00 47 1007.5
20260505023830 63 224 6.0 10.0 0.00 0.00 0.00 47 1007.4
20260505023327 63 163 11.0 16.0 0.00 0.00 0.00 46 1007.4
20260505022824 63 183 7.0 10.0 0.00 0.00 0.00 46 1007.5
20260505022321 63 282 4.0 7.0 0.00 0.00 0.00 46 1007.5
20260505021818 63 137 9.0 11.0 0.00 0.00 0.00 46 1007.6
20260505021315 64 125 4.0 5.0 0.00 0.00 0.00 45 1007.8
20260505020810 64 234 7.0 8.0 0.00 0.00 0.00 45 1007.5
20260505020307 64 139 9.0 10.0 0.00 0.00 0.00 44 1007.7
20260505015803 64 172 5.0 6.0 0.00 0.00 0.00 44 1007.4
20260505015300 64 225 10.0 13.0 0.00 0.00 0.00 43 1007.6
20260505014758 64 142 11.0 14.0 0.00 0.00 0.00 44 1007.6
20260505014255 64 167 3.0 7.0 0.00 0.00 0.00 44 1007.4
20260505013751 64 212 11.0 16.0 0.00 0.00 0.00 44 1007.5
20260505013248 64 265 6.0 9.0 0.00 0.00 0.00 43 1007.3
20260505012747 64 184 7.0 9.0 0.00 0.00 0.00 43 1007.4
20260505012244 64 236 6.0 8.0 0.00 0.00 0.00 43 1007.4
20260505011739 64 225 3.0 5.0 0.00 0.00 0.00 42 1007.2
20260505011237 64 169 7.0 9.0 0.00 0.00 0.00 42 1007.4
20260505010732 64 187 7.0 8.0 0.00 0.00 0.00 42 1007.2
20260505010229 64 291 3.0 3.0 0.00 0.00 0.00 43 1007.2
20260505005725 64 179 3.0 3.0 0.00 0.00 0.00 42 1007.2
20260505005222 65 216 5.0 8.0 0.00 0.00 0.00 42 1007.2
20260505004719 65 245 5.0 7.0 0.00 0.00 0.00 42 1007.0
20260505004216 65 177 6.0 8.0 0.00 0.00 0.00 42 1007.1
20260505003713 65 203 6.0 7.0 0.00 0.00 0.00 41 1007.1
20260505003211 65 277 2.0 2.0 0.00 0.00 0.00 42 1006.9
20260505002707 66 153 11.0 14.0 0.00 0.00 0.00 40 1006.9
20260505002205 66 112 4.0 5.0 0.00 0.00 0.00 41 1006.8
20260505001702 66 169 3.0 3.0 0.00 0.00 0.00 41 1006.7
20260505001159 66 203 3.0 3.0 0.00 0.00 0.00 40 1007.0
20260505000656 66 189 3.0 6.0 0.00 0.00 0.00 40 1006.9
20260505000154 66 244 6.0 7.0 0.00 0.00 0.00 39 1006.8
20260504235650 66 186 4.0 5.0 0.00 0.00 0.00 40 1006.8
20260504235146 66 185 6.0 9.0 0.00 0.00 0.00 39 1006.8
20260504234644 67 211 3.0 6.0 0.00 0.00 0.00 38 1006.8
20260504234141 67 224 5.0 8.0 0.00 0.00 0.00 39 1006.7
20260504233637 67 209 5.0 7.0 0.00 0.00 0.00 38 1006.7
20260504233133 67 231 6.0 8.0 0.00 0.00 0.00 37 1006.5
20260504232631 68 248 4.0 6.0 0.00 0.00 0.00 37 1006.4
20260504232127 68 189 3.0 3.0 0.00 0.00 0.00 38 1006.5
20260504231624 68 222 4.0 5.0 0.00 0.00 0.00 37 1006.3
20260504231120 68 171 5.0 6.0 0.00 0.00 0.00 36 1006.5
20260504230616 68 277 3.0 3.0 0.00 0.00 0.00 37 1006.4
20260504230116 68 288 7.0 8.0 0.00 0.00 0.00 36 1006.4
20260504225613 68 159 5.0 7.0 0.00 0.00 0.00 37 1006.5
20260504225109 68 165 8.0 10.0 0.00 0.00 0.00 36 1006.7
20260504224606 69 58 6.0 8.0 0.00 0.00 0.00 35 1006.5
20260504224103 69 158 11.0 14.0 0.00 0.00 0.00 36 1006.4
20260504223600 69 147 7.0 10.0 0.00 0.00 0.00 35 1006.4
20260504223055 69 146 7.0 9.0 0.00 0.00 0.00 36 1006.7
20260504222553 69 184 6.0 7.0 0.00 0.00 0.00 36 1006.5
20260504222050 69 246 7.0 7.0 0.00 0.00 0.00 35 1006.7
20260504221547 69 238 7.0 8.0 0.00 0.00 0.00 35 1006.9
20260504221044 69 145 14.0 16.0 0.00 0.00 0.00 34 1006.7
20260504220540 69 166 10.0 13.0 0.00 0.00 0.00 35 1006.8
20260504220037 69 268 6.0 8.0 0.00 0.00 0.00 35 1006.5
20260504215534 69 271 8.0 9.0 0.00 0.00 0.00 34 1006.3
20260504215032 69 236 5.0 8.0 0.00 0.00 0.00 36 1006.4
20260504214527 69 228 11.0 13.0 0.00 0.00 0.00 34 1006.7
20260504214024 69 187 6.0 9.0 0.00 0.00 0.00 35 1006.4
20260504213521 69 216 6.0 9.0 0.00 0.00 0.00 34 1006.5
20260504213018 69 222 6.0 8.0 0.00 0.00 0.00 35 1006.5
20260504212513 69 245 4.0 5.0 0.00 0.00 0.00 36 1006.4
20260504212011 69 201 4.0 6.0 0.00 0.00 0.00 35 1006.4
20260504211508 69 240 11.0 13.0 0.00 0.00 0.00 34 1007.0
20260504211005 69 211 8.0 10.0 0.00 0.00 0.00 36 1007.0
20260504210502 69 184 10.0 13.0 0.00 0.00 0.00 35 1006.8
20260504205958 69 260 5.0 9.0 0.00 0.00 0.00 36 1006.7
20260504205456 69 209 6.0 10.0 0.00 0.00 0.00 36 1007.0
20260504204954 69 290 3.0 5.0 0.00 0.00 0.00 34 1006.9
20260504204452 70 241 10.0 11.0 0.00 0.00 0.00 33 1006.9
20260504203951 69 184 7.0 13.0 0.00 0.00 0.00 35 1007.0
20260504203449 69 308 2.0 2.0 0.00 0.00 0.00 36 1007.0
20260504202944 70 158 4.0 5.0 0.00 0.00 0.00 35 1007.1
20260504202441 69 143 5.0 7.0 0.00 0.00 0.00 36 1007.3
20260504201938 69 199 8.0 10.0 0.00 0.00 0.00 35 1007.0
20260504201435 69 234 8.0 11.0 0.00 0.00 0.00 35 1007.1
20260504200933 68 125 5.0 7.0 0.00 0.00 0.00 36 1007.3
20260504200429 69 174 9.0 11.0 0.00 0.00 0.00 35 1007.1
20260504195926 69 194 5.0 8.0 0.00 0.00 0.00 38 1007.3
20260504195422 68 212 7.0 10.0 0.00 0.00 0.00 37 1007.6
20260504194918 68 246 6.0 8.0 0.00 0.00 0.00 39 1007.5
20260504194414 68 253 11.0 14.0 0.00 0.00 0.00 36 1007.7
20260504193910 68 208 5.0 7.0 0.00 0.00 0.00 39 1007.5
20260504193408 68 205 8.0 11.0 0.00 0.00 0.00 37 1007.4
20260504192907 67 217 5.0 9.0 0.00 0.00 0.00 39 1007.4
20260504192403 67 209 8.0 10.0 0.00 0.00 0.00 38 1007.5
20260504191902 67 216 9.0 10.0 0.00 0.00 0.00 38 1007.6
20260504191400 68 175 4.0 6.0 0.00 0.00 0.00 38 1007.7
20260504190855 68 235 9.0 11.0 0.00 0.00 0.00 37 1007.6
20260504190351 68 264 6.0 9.0 0.00 0.00 0.00 40 1007.8
20260504185848 67 223 5.0 6.0 0.00 0.00 0.00 37 1007.9
20260504185345 66 223 9.0 13.0 0.00 0.00 0.00 38 1008.0
20260504184841 67 224 6.0 8.0 0.00 0.00 0.00 38 1007.8
20260504184337 66 213 7.0 9.0 0.00 0.00 0.00 38 1007.9
20260504183833 66 210 8.0 10.0 0.00 0.00 0.00 38 1008.0
20260504183330 66 249 12.0 15.0 0.00 0.00 0.00 37 1008.3
20260504182828 66 231 4.0 6.0 0.00 0.00 0.00 39 1008.2
20260504182325 68 182 9.0 11.0 0.00 0.00 0.00 37 1008.4
20260504181822 67 212 5.0 6.0 0.00 0.00 0.00 38 1008.1
20260504181319 65 234 8.0 11.0 0.00 0.00 0.00 39 1007.9
20260504180818 66 219 4.0 6.0 0.00 0.00 0.00 39 1008.2
20260504180316 65 168 6.0 9.0 0.00 0.00 0.00 41 1008.1
20260504175814 65 235 5.0 6.0 0.00 0.00 0.00 40 1008.4
20260504175311 65 245 7.0 9.0 0.00 0.00 0.00 39 1008.3
20260504174809 66 261 7.0 11.0 0.00 0.00 0.00 39 1008.6
20260504174306 66 321 5.0 7.0 0.00 0.00 0.00 38 1008.4
20260504173802 66 224 3.0 5.0 0.00 0.00 0.00 42 1008.4
20260504173259 65 219 6.0 9.0 0.00 0.00 0.00 39 1008.4
20260504172756 65 190 7.0 9.0 0.00 0.00 0.00 40 1008.6
20260504172253 65 177 9.0 15.0 0.00 0.00 0.00 41 1008.5
20260504171749 64 214 11.0 14.0 0.00 0.00 0.00 39 1008.5
20260504171246 64 176 13.0 18.0 0.00 0.00 0.00 41 1008.6
20260504170743 64 174 11.0 15.0 0.00 0.00 0.00 41 1008.5
20260504170240 64 229 5.0 8.0 0.00 0.00 0.00 40 1008.6
20260504160159 61 336 3.0 5.0 0.00 0.00 0.00 44 1009.3
20260504151126 59 211 6.0 7.0 0.00 0.00 0.00 44 1010.0
20260504150624 59 213 8.0 10.0 0.00 0.00 0.00 44 1010.0
20260504150121 58 238 10.0 11.0 0.00 0.00 0.00 43 1009.9
20260504141049 55 222 3.0 5.0 0.00 0.00 0.00 48 1010.5
20260504140546 55 245 6.0 8.0 0.00 0.00 0.00 46 1010.3
20260504130510 51 206 2.0 2.0 0.00 0.00 0.00 54 1010.9
20260504110357 45 275 1.0 1.0 0.00 0.00 0.00 60 1011.2
20260504100315 43 319 0.0 0.0 0.00 0.00 0.00 63 1010.8
20260504081708 44 294 0.0 1.0 0.00 0.00 0.00 59 1011.0
20260504081204 44 273 1.0 1.0 0.00 0.00 0.00 60 1011.2
20260504080701 44 269 1.0 1.0 0.00 0.00 0.00 59 1011.0
20260504080157 44 280 0.0 1.0 0.00 0.00 0.00 58 1011.2
20260504070125 43 329 0.0 0.0 0.00 0.00 0.00 63 1011.0